Location: Milton Keynes
(52.0316°N, 0.7531°W)
Time: 05:05:15
(UTC+01:00)

ATV-4 - Visible Passes

Search period start: 09 May 2021 00:00
Search period end: 19 May 2021 00:00
Orbit: 308 x 318 km, 51.6° (Epoch: 02 November)

Date Brightness Start Highest point End Pass type
(mag) Time Alt. Az. Time Alt. Az. Time Alt. Az.
09 May 6.0 00:10:03 10° WSW 00:14:06 12° SW 00:19:10 10° SW visible
09 May 4.8 21:41:32 10° W 21:48:42 36° SW 22:03:59 10° SSE visible
10 May 5.1 22:07:25 10° W 22:14:50 30° SW 22:29:39 10° S visible
11 May 5.4 22:33:58 10° W 22:41:26 25° SW 22:55:13 10° S visible
12 May 5.7 23:01:18 10° W 23:08:29 20° SW 23:20:27 10° S visible
13 May 6.0 23:29:46 10° W 23:35:57 15° SW 23:44:58 10° SSW visible
14 May 4.7 21:05:23 10° W 21:12:26 40° SW 21:28:05 10° SSE visible
15 May 6.2 00:01:06 10° WSW 00:03:48 11° SW 00:06:53 10° SW visible
15 May 5.0 21:33:22 10° W 21:40:46 34° SW 21:56:16 10° SSE visible
16 May 5.3 22:02:00 10° W 22:09:35 28° SW 22:24:20 10° S visible
17 May 5.6 22:31:22 10° W 22:38:52 22° SW 22:52:07 10° S visible
18 May 5.9 23:01:44 10° W 23:08:35 17° SW 23:19:14 10° SSW visible
